Location: downtown San Diego
(32.7310°N, 117.1990°W)
Time: 20:07:50
(UTC-08:00)

H-2A R/B - Pass Details

Date: 19 May 2017
Orbit: 579 x 657 km, 98.4° (Epoch: 24 November)

Event Time Altitude Azimuth Distance (km) Brightness Sun altitude
Exits shadow 23:09:24 32° 334° (NNW) 1,122 3.8 -32.5°
Drops below altitude 10° 23:11:53 10° 342° (NNW) 2,069 5.6 -32.7°
Sets 23:14:08 0° 345° (NNW) 2,987 6.6 -32.9°
